Provo, UT

6:39 AM MST on December 15, 2019 (GMT -0700)
Provo Municipal

Weather History for KPVU - November, 2019

Change the Weather History Date:

Friday, November 22, 2019

  Actual Average Record
Temperature  
Mean Temperature 34 °F -  
Max Temperature 41 °F 43 °F 62 °F (2006)
Min Temperature 27 °F 27 °F 16 °F (1985)
Degree Days  
Heating Degree Days 31    
Moisture  
Dew Point 32 °F    
Average Humidity 82    
Maximum Humidity 93    
Minimum Humidity 73    
Precipitation  
Precipitation 0.00 in - - ()
Sea Level Pressure  
Sea Level Pressure 30.27 in    
Wind  
Wind Speed 2 mph (West)    
Max Wind Speed 6 mph    
Max Gust Speed -    
Visibility 10 miles    
Events      
Averages and records for this station are not official NWS values.
T = Trace of Precipitation, MM = Missing Value Source: NWS Daily Summary

Daily Weather History Graph

Daily Weather History Graph

Search for Another Location

Airport or City:

Astronomy

Nov. 22, 2019 Rise Set
Actual Time 7:20 AM MST 5:05 PM MST
Civil Twilight 6:50 AM MST 5:34 PM MST
Nautical Twilight 6:17 AM MST 6:08 PM MST
Astronomical Twilight 5:45 AM MST 6:40 PM MST
Moon 2:30 AM MST (11/22) 3:08 PM MST (11/22)
Length of Visible Light 10h 44m
Length of Day
9h 44m
Waning Crescent, 19% of the Moon is Illuminated
Nov 22
Waning Crescent
Nov 26
New
Dec 3
First Quarter
Dec 11
Full
Dec 18
Last Quarter

Hourly Weather History & Observations

Time (MST) Temp. Windchill Dew Point Humidity Pressure Visibility Wind Dir Wind Speed Gust Speed Precip Events Conditions
12:56 AM 30.9 °F - 28.9 °F 92% 30.12 in 10.0 mi Calm Calm - N/A   Clear
1:56 AM 30.0 °F - 27.0 °F 88% 30.14 in 10.0 mi Calm Calm - N/A   Clear
2:56 AM 28.9 °F 25.2 °F 26.1 °F 89% 30.14 in 10.0 mi ESE 3.5 mph - N/A   Clear
3:56 AM 27.0 °F - 25.0 °F 92% 30.17 in 10.0 mi Calm Calm - N/A   Clear
4:56 AM 28.0 °F - 26.1 °F 92% 30.19 in 10.0 mi Calm Calm - N/A   Scattered Clouds
5:56 AM 28.0 °F 24.2 °F 26.1 °F 92% 30.21 in 10.0 mi SE 3.5 mph - N/A   Scattered Clouds
7:56 AM 30.9 °F 25.2 °F 28.9 °F 92% 30.25 in 10.0 mi East 5.8 mph - N/A   Overcast
8:56 AM 33.1 °F - 30.9 °F 92% 30.27 in 10.0 mi Calm Calm - N/A   Overcast
9:09 AM 33.8 °F - 30.2 °F 87% 30.24 in 10.0 mi Calm Calm - N/A   Overcast
9:38 AM 39.2 °F - 37.4 °F 93% 30.25 in 10.0 mi Calm Calm - N/A   Overcast
9:56 AM 37.9 °F 35.5 °F 33.1 °F 83% 30.27 in 10.0 mi SE 3.5 mph - N/A   Overcast
10:56 AM 39.0 °F 36.8 °F 34.0 °F 82% 30.30 in 10.0 mi SSW 3.5 mph - N/A   Overcast
12:41 PM 39.2 °F - 33.8 °F 81% 30.24 in 10.0 mi Calm Calm - N/A   Overcast
12:56 PM 39.9 °F 37.8 °F 34.0 °F 79% 30.27 in 10.0 mi WNW 3.5 mph - N/A   Overcast
1:56 PM 39.9 °F - 33.1 °F 77% 30.28 in 10.0 mi Calm Calm - N/A   Overcast
2:56 PM 39.9 °F - 32.0 °F 73% 30.28 in 10.0 mi Calm Calm - N/A   Overcast
3:56 PM 41.0 °F 39.0 °F 33.1 °F 73% 30.30 in 10.0 mi NW 3.5 mph - N/A   Overcast
4:56 PM 39.9 °F - 33.1 °F 77% 30.30 in 10.0 mi Calm Calm - N/A   Overcast
5:56 PM 39.9 °F 36.7 °F 34.0 °F 79% 30.31 in 10.0 mi WNW 4.6 mph - N/A   Overcast
6:56 PM 41.0 °F 37.1 °F 34.0 °F 76% 30.32 in 10.0 mi NW 5.8 mph - N/A   Overcast
7:56 PM 39.9 °F 37.8 °F 33.1 °F 77% 30.34 in 10.0 mi NNE 3.5 mph - N/A   Overcast
8:56 PM 39.9 °F 36.7 °F 33.1 °F 77% 30.34 in 10.0 mi WNW 4.6 mph - N/A   Overcast
9:56 PM 39.9 °F 36.7 °F 32.0 °F 73% 30.34 in 10.0 mi NW 4.6 mph - N/A   Overcast
10:35 PM 41.0 °F 37.1 °F 33.8 °F 76% 30.32 in 10.0 mi WSW 5.8 mph - N/A   Overcast
10:56 PM 41.0 °F 37.1 °F 34.0 °F 76% 30.35 in 10.0 mi SW 5.8 mph - N/A   Overcast
11:09 PM 39.2 °F 35.0 °F 33.8 °F 81% 30.33 in 10.0 mi SW 5.8 mph - N/A   Overcast
11:56 PM 39.9 °F 37.8 °F 33.1 °F 77% 30.36 in 10.0 mi NNW 3.5 mph - N/A   Overcast